START_TIME,STEP,MOV.,M34,t_acc.,L5,t_acc.,L18,t_acc.,L14,t_acc.
1979-03-07 09:00:22.440 ,7,1,0.,12.0,0.,12.0,0.,12.0,0.,12.0
1979-03-07 09:00:34.440 ,7,1,0.,12.0,0.,12.0,0.,12.0,0.,12.0
1979-03-07 09:00:46.440 ,6,1,0.,12.0,0.,12.0,0.,12.0,0.,12.0
1979-03-07 09:00:58.440 ,6,1,0.,12.0,0.,12.0,0.,12.0,0.,12.0
1979-03-07 09:01:10.440 ,5,1,0.,12.0,0.,12.0,0.,12.0,0.,12.0
1979-03-07 09:01:22.440 ,5,1,0.,12.0,0.,12.0,0.,12.0,0.,12.0
1979-03-07 09:01:34.440 ,4,1,0.,12.0,0.,12.0,0.,12.0,0.,12.0
1979-03-07 09:01:46.440 ,4,1,0.,12.0,0.,12.0,0.,12.0,0.,12.0
1979-03-07 09:01:58.440 ,3,1,0.,12.0,0.,12.0,0.,12.0,0.,12.0
1979-03-07 09:02:10.440 ,3,1,0.,12.0,0.,12.0,0.,12.0,0.,12.0
1979-03-07 09:02:22.440 ,2,1,0.,12.0,0.,12.0,0.,12.0,0.,12.0
1979-03-07 09:02:34.440 ,2,1,0.,12.0,0.,12.0,0.,12.0,0.,12.0
1979-03-07 09:02:46.440 ,1,1,0.,12.0,0.,12.0,0.,12.0,0.,12.0
1979-03-07 09:02:58.440 ,1,1,0.,12.0,0.,12.0,0.,12.0,0.,12.0
1979-03-07 09:03:10.440 ,0,1,0.,12.0,0.,12.0,0.,12.0,1.,12.0
1979-03-07 09:03:22.440 ,0,1,0.,12.0,0.,12.0,0.,12.0,0.,12.0
1979-03-07 09:03:34.440 ,0,1,0.,12.0,0.,12.0,0.,12.0,0.,12.0
1979-03-07 09:03:46.440 ,0,1,0.,12.0,0.,12.0,0.,12.0,0.,12.0
1979-03-07 09:03:58.440 ,1,1,0.,12.0,0.,12.0,0.,12.0,0.,12.0
1979-03-07 09:04:10.440 ,1,1,0.,12.0,0.,12.0,0.,12.0,0.,12.0
1979-03-07 09:04:22.440 ,2,1,0.,12.0,0.,12.0,0.,12.0,0.,12.0
1979-03-07 09:04:34.440 ,2,1,0.,12.0,0.,12.0,0.,12.0,0.,12.0
1979-03-07 09:04:46.440 ,3,1,0.,12.0,0.,12.0,0.,12.0,0.,12.0
1979-03-07 09:04:58.440 ,3,1,0.,12.0,0.,12.0,0.,12.0,0.,12.0
1979-03-07 09:05:10.440 ,4,1,0.,12.0,0.,12.0,0.,12.0,0.,12.0
1979-03-07 09:05:22.440 ,4,1,0.,12.0,0.,12.0,0.,12.0,0.,12.0
1979-03-07 09:05:34.440 ,5,1,0.,12.0,0.,12.0,0.,12.0,0.,12.0
1979-03-07 09:05:46.440 ,5,1,0.,12.0,0.,12.0,0.,12.0,0.,12.0
1979-03-07 09:05:58.440 ,6,1,0.,12.0,0.,12.0,0.,12.0,0.,12.0
1979-03-07 09:06:10.440 ,6,1,0.,12.0,0.,12.0,0.,12.0,0.,12.0
1979-03-07 09:06:22.440 ,7,1,0.,12.0,0.,12.0,0.,12.0,0.,12.0
1979-03-07 09:06:34.440 ,7,1,0.,12.0,0.,12.0,0.,12.0,0.,12.0
1979-03-07 09:06:46.440 ,7,1,0.,12.0,0.,12.0,0.,12.0,0.,12.0
1979-03-07 09:06:58.440 ,7,1,0.,12.0,0.,12.0,0.,12.0,0.,12.0
1979-03-07 09:07:10.440 ,6,1,0.,12.0,0.,12.0,0.,12.0,0.,12.0
1979-03-07 09:07:22.440 ,6,1,0.,12.0,0.,12.0,0.,12.0,0.,12.0
1979-03-07 09:07:34.440 ,5,1,0.,12.0,0.,12.0,0.,12.0,0.,12.0
1979-03-07 09:07:46.440 ,5,1,0.,12.0,0.,12.0,0.,12.0,0.,12.0
1979-03-07 09:07:58.440 ,4,1,0.,12.0,0.,12.0,0.,12.0,0.,12.0
1979-03-07 09:08:10.440 ,4,1,0.,12.0,0.,12.0,0.,12.0,0.,12.0
1979-03-07 09:08:22.440 ,3,1,0.,12.0,0.,12.0,0.,12.0,0.,12.0
1979-03-07 09:08:34.440 ,3,1,0.,12.0,1.,12.0,0.,12.0,0.,12.0
1979-03-07 09:08:46.440 ,2,1,0.,12.0,0.,12.0,0.,12.0,0.,12.0
1979-03-07 09:08:58.440 ,2,1,0.,12.0,0.,12.0,0.,12.0,0.,12.0
1979-03-07 09:09:10.440 ,1,1,0.,12.0,1.,12.0,0.,12.0,0.,12.0
1979-03-07 09:09:22.440 ,1,1,0.,12.0,0.,12.0,0.,12.0,0.,12.0
1979-03-07 09:09:34.440 ,0,1,0.,12.0,0.,12.0,0.,12.0,0.,12.0
1979-03-07 09:09:46.440 ,0,1,0.,12.0,0.,12.0,0.,12.0,0.,12.0
1979-03-07 09:09:58.440 ,0,1,0.,12.0,0.,12.0,0.,12.0,0.,12.0
1979-03-07 09:10:10.440 ,0,1,0.,12.0,0.,12.0,0.,12.0,0.,12.0
1979-03-07 09:10:22.440 ,1,1,0.,12.0,0.,12.0,0.,12.0,0.,12.0
1979-03-07 09:10:34.440 ,1,1,0.,12.0,0.,12.0,0.,12.0,0.,12.0
1979-03-07 09:10:46.440 ,2,1,0.,12.0,0.,12.0,0.,12.0,0.,12.0
1979-03-07 09:10:58.440 ,2,1,0.,12.0,0.,12.0,0.,12.0,0.,12.0
1979-03-07 09:11:10.440 ,3,1,0.,12.0,0.,12.0,0.,12.0,0.,12.0
1979-03-07 09:11:22.440 ,3,1,0.,12.0,0.,12.0,0.,12.0,0.,12.0
1979-03-07 09:11:34.440 ,4,1,0.,12.0,0.,12.0,0.,12.0,0.,12.0
1979-03-07 09:11:46.440 ,4,1,0.,12.0,0.,12.0,0.,12.0,0.,12.0
1979-03-07 09:11:58.440 ,5,1,0.,12.0,0.,12.0,0.,12.0,0.,12.0
1979-03-07 09:12:10.440 ,5,1,0.,12.0,0.,12.0,0.,12.0,0.,12.0
1979-03-07 09:12:22.440 ,6,1,0.,12.0,0.,12.0,0.,12.0,0.,12.0
1979-03-07 09:12:34.440 ,6,1,0.,12.0,0.,12.0,0.,12.0,0.,12.0
1979-03-07 09:12:46.440 ,7,1,0.,12.0,0.,12.0,0.,12.0,0.,12.0
1979-03-07 09:12:58.440 ,7,1,0.,12.0,0.,12.0,0.,12.0,0.,12.0
1979-03-07 09:13:10.440 ,7,1,0.,12.0,0.,12.0,0.,12.0,0.,12.0
1979-03-07 09:13:22.440 ,7,1,0.,12.0,0.,12.0,0.,12.0,0.,12.0
1979-03-07 09:13:34.440 ,6,1,0.,12.0,0.,12.0,0.,12.0,0.,12.0
1979-03-07 09:13:46.440 ,6,1,0.,12.0,0.,12.0,0.,12.0,0.,12.0
1979-03-07 09:13:58.440 ,5,1,0.,12.0,0.,12.0,0.,12.0,0.,12.0
1979-03-07 09:14:10.440 ,5,1,0.,12.0,0.,12.0,0.,12.0,0.,12.0
1979-03-07 09:14:22.440 ,4,1,0.,12.0,0.,12.0,0.,12.0,0.,12.0
1979-03-07 09:14:34.440 ,4,1,0.,12.0,0.,12.0,0.,12.0,0.,12.0
1979-03-07 09:14:46.440 ,3,1,0.,12.0,0.,12.0,0.,12.0,0.,12.0
1979-03-07 09:14:58.440 ,3,1,0.,12.0,0.,12.0,0.,12.0,0.,12.0
1979-03-07 09:15:10.440 ,2,1,0.,12.0,0.,12.0,0.,12.0,0.,12.0
1979-03-07 09:15:22.440 ,2,1,0.,12.0,0.,12.0,0.,12.0,0.,12.0
1979-03-07 09:15:34.440 ,1,1,0.,12.0,0.,12.0,0.,12.0,0.,12.0
1979-03-07 09:15:46.440 ,1,1,0.,12.0,0.,12.0,0.,12.0,0.,12.0
1979-03-07 09:15:58.440 ,0,1,0.,12.0,0.,12.0,0.,12.0,0.,12.0
1979-03-07 09:16:10.440 ,0,1,0.,12.0,0.,12.0,0.,12.0,0.,12.0
1979-03-07 09:16:22.440 ,0,1,0.,12.0,0.,12.0,0.,12.0,0.,12.0
1979-03-07 09:16:34.440 ,0,1,0.,12.0,0.,12.0,0.,12.0,0.,12.0
1979-03-07 09:16:46.440 ,1,1,0.,12.0,0.,12.0,0.,12.0,0.,12.0
1979-03-07 09:16:58.440 ,1,1,0.,12.0,0.,12.0,0.,12.0,0.,12.0
1979-03-07 09:17:10.440 ,2,1,0.,12.0,0.,12.0,0.,12.0,0.,12.0
1979-03-07 09:17:22.440 ,2,1,0.,12.0,0.,12.0,0.,12.0,0.,12.0
1979-03-07 09:17:34.440 ,3,1,0.,12.0,0.,12.0,0.,12.0,0.,12.0
1979-03-07 09:17:46.440 ,3,1,0.,12.0,0.,12.0,0.,12.0,0.,12.0
1979-03-07 09:17:58.440 ,4,1,0.,12.0,0.,12.0,0.,12.0,1.,12.0
1979-03-07 09:18:10.440 ,4,1,0.,12.0,0.,12.0,0.,12.0,0.,12.0
1979-03-07 09:18:22.440 ,5,1,0.,12.0,0.,12.0,0.,12.0,0.,12.0
1979-03-07 09:18:34.440 ,5,1,0.,12.0,0.,12.0,0.,12.0,0.,12.0
1979-03-07 09:18:46.440 ,6,1,0.,12.0,0.,12.0,0.,12.0,0.,12.0
1979-03-07 09:18:58.440 ,6,1,0.,12.0,0.,12.0,0.,12.0,0.,12.0
1979-03-07 09:19:10.440 ,7,1,0.,12.0,0.,12.0,0.,12.0,0.,12.0
1979-03-07 09:19:22.440 ,7,1,0.,12.0,0.,12.0,0.,12.0,0.,12.0
1979-03-07 09:19:34.440 ,7,1,0.,12.0,0.,12.0,0.,12.0,0.,12.0
1979-03-07 09:19:46.440 ,7,1,0.,12.0,0.,12.0,0.,12.0,0.,12.0
1979-03-07 09:19:58.440 ,6,1,0.,12.0,0.,12.0,0.,12.0,0.,12.0
1979-03-07 09:20:10.440 ,6,1,0.,12.0,0.,12.0,0.,12.0,0.,12.0
1979-03-07 09:20:22.440 ,5,1,0.,12.0,0.,12.0,0.,12.0,0.,12.0
1979-03-07 09:20:34.440 ,5,1,0.,12.0,0.,12.0,0.,12.0,0.,12.0
1979-03-07 09:20:46.440 ,4,1,0.,12.0,0.,12.0,0.,12.0,0.,12.0
1979-03-07 09:20:58.440 ,4,1,0.,12.0,0.,12.0,0.,12.0,0.,12.0
1979-03-07 09:21:10.440 ,3,1,0.,12.0,0.,12.0,0.,12.0,0.,12.0
1979-03-07 09:21:22.440 ,3,1,0.,12.0,0.,12.0,0.,12.0,0.,12.0
1979-03-07 09:21:34.440 ,2,1,0.,12.0,0.,12.0,0.,12.0,0.,12.0
1979-03-07 09:21:46.440 ,2,1,0.,12.0,0.,12.0,0.,12.0,0.,12.0
1979-03-07 09:21:58.440 ,1,1,0.,12.0,0.,12.0,0.,12.0,0.,12.0
1979-03-07 09:22:10.440 ,1,1,0.,12.0,0.,12.0,0.,12.0,0.,12.0
1979-03-07 09:22:22.440 ,0,1,0.,12.0,0.,12.0,0.,12.0,0.,12.0
1979-03-07 09:22:34.440 ,0,1,0.,12.0,0.,12.0,0.,12.0,0.,12.0
1979-03-07 09:22:46.440 ,0,1,0.,12.0,0.,12.0,0.,12.0,0.,12.0
1979-03-07 09:22:58.440 ,0,1,0.,12.0,0.,12.0,0.,12.0,0.,12.0
1979-03-07 09:23:10.440 ,1,1,0.,12.0,0.,12.0,0.,12.0,0.,12.0
1979-03-07 09:23:22.440 ,1,1,0.,12.0,0.,12.0,0.,12.0,0.,12.0
1979-03-07 09:23:34.440 ,2,1,0.,12.0,0.,12.0,0.,12.0,0.,12.0
1979-03-07 09:23:46.440 ,2,1,0.,12.0,0.,12.0,0.,12.0,0.,12.0
1979-03-07 09:23:58.440 ,3,1,0.,12.0,0.,12.0,0.,12.0,0.,12.0
1979-03-07 09:24:10.440 ,3,1,0.,12.0,0.,12.0,0.,12.0,0.,12.0
1979-03-07 09:24:22.440 ,4,1,0.,12.0,0.,12.0,0.,12.0,0.,12.0
1979-03-07 09:24:34.440 ,4,1,0.,12.0,0.,12.0,0.,12.0,0.,12.0
1979-03-07 09:24:46.440 ,5,1,0.,12.0,0.,12.0,0.,12.0,0.,12.0
1979-03-07 09:24:58.440 ,5,1,0.,12.0,0.,12.0,0.,12.0,0.,12.0
1979-03-07 09:25:10.440 ,6,1,0.,12.0,0.,12.0,0.,12.0,0.,12.0
1979-03-07 09:25:22.440 ,6,1,0.,12.0,0.,12.0,0.,12.0,0.,12.0
1979-03-07 09:25:34.440 ,7,1,0.,12.0,0.,12.0,0.,12.0,0.,12.0
1979-03-07 09:25:46.440 ,7,1,0.,12.0,0.,12.0,0.,12.0,0.,12.0
1979-03-07 09:25:58.440 ,7,1,0.,12.0,0.,12.0,0.,12.0,0.,12.0
1979-03-07 09:26:10.440 ,7,1,0.,12.0,0.,12.0,0.,12.0,0.,12.0
1979-03-07 09:26:22.440 ,6,1,0.,12.0,0.,12.0,0.,12.0,0.,12.0
1979-03-07 09:26:34.440 ,6,1,0.,12.0,0.,12.0,0.,12.0,0.,12.0
1979-03-07 09:26:46.440 ,5,1,0.,12.0,0.,12.0,0.,12.0,0.,12.0
1979-03-07 09:26:58.440 ,5,1,0.,12.0,0.,12.0,0.,12.0,0.,12.0
1979-03-07 09:27:10.440 ,4,1,0.,12.0,0.,12.0,0.,12.0,0.,12.0
1979-03-07 09:27:22.440 ,4,1,0.,12.0,0.,12.0,0.,12.0,0.,12.0
1979-03-07 09:27:34.440 ,3,1,0.,12.0,0.,12.0,0.,12.0,0.,12.0
1979-03-07 09:27:46.440 ,3,1,0.,12.0,0.,12.0,0.,12.0,0.,12.0
1979-03-07 09:27:58.440 ,2,1,0.,12.0,0.,12.0,0.,12.0,0.,12.0
1979-03-07 09:28:10.440 ,2,1,0.,12.0,0.,12.0,0.,12.0,0.,12.0
1979-03-07 09:28:22.440 ,1,1,0.,12.0,0.,12.0,0.,12.0,0.,12.0
1979-03-07 09:28:34.440 ,1,1,0.,12.0,0.,12.0,0.,12.0,0.,12.0
1979-03-07 09:28:46.440 ,0,1,0.,12.0,0.,12.0,0.,12.0,0.,12.0
1979-03-07 09:28:58.440 ,0,1,0.,12.0,0.,12.0,0.,12.0,0.,12.0
1979-03-07 09:29:10.440 ,0,1,0.,12.0,0.,12.0,0.,12.0,0.,12.0
1979-03-07 09:29:22.440 ,0,1,0.,12.0,0.,12.0,0.,12.0,0.,12.0
1979-03-07 09:29:34.440 ,1,1,0.,12.0,0.,12.0,0.,12.0,0.,12.0
1979-03-07 09:29:46.440 ,1,1,0.,12.0,0.,12.0,0.,12.0,0.,12.0
1979-03-07 09:29:58.440 ,2,1,0.,12.0,0.,12.0,0.,12.0,0.,12.0
1979-03-07 09:30:10.440 ,2,1,0.,12.0,0.,12.0,0.,12.0,0.,12.0
1979-03-07 09:30:22.440 ,3,1,0.,12.0,0.,12.0,0.,12.0,0.,12.0
1979-03-07 09:30:34.440 ,3,1,0.,12.0,0.,12.0,0.,12.0,0.,12.0
1979-03-07 09:30:46.440 ,4,1,0.,12.0,0.,12.0,0.,12.0,0.,12.0
1979-03-07 09:30:58.440 ,4,1,0.,12.0,0.,12.0,0.,12.0,0.,12.0
1979-03-07 09:31:10.440 ,5,1,0.,12.0,0.,12.0,0.,12.0,0.,12.0
1979-03-07 09:31:22.440 ,5,1,0.,12.0,0.,12.0,0.,12.0,0.,12.0
1979-03-07 09:31:34.440 ,6,1,0.,12.0,0.,12.0,0.,12.0,0.,12.0
1979-03-07 09:31:46.440 ,6,1,0.,12.0,0.,12.0,0.,12.0,0.,12.0
1979-03-07 09:31:58.440 ,7,1,0.,12.0,0.,12.0,0.,12.0,0.,12.0
1979-03-07 09:32:10.440 ,7,1,0.,12.0,0.,12.0,0.,12.0,0.,12.0
1979-03-07 09:32:22.440 ,7,1,0.,12.0,0.,12.0,0.,12.0,0.,12.0
1979-03-07 09:32:34.440 ,7,1,0.,12.0,0.,12.0,0.,12.0,0.,12.0
1979-03-07 09:32:46.440 ,6,1,0.,12.0,0.,12.0,0.,12.0,0.,12.0
1979-03-07 09:32:58.440 ,6,1,0.,12.0,0.,12.0,0.,12.0,0.,12.0
1979-03-07 09:33:10.440 ,5,1,0.,12.0,0.,12.0,0.,12.0,0.,12.0
1979-03-07 09:33:22.440 ,5,1,0.,12.0,0.,12.0,0.,12.0,0.,12.0
1979-03-07 09:33:34.440 ,4,1,0.,12.0,0.,12.0,0.,12.0,0.,12.0
1979-03-07 09:33:46.440 ,4,1,0.,12.0,0.,12.0,0.,12.0,0.,12.0
1979-03-07 09:33:58.440 ,3,1,0.,12.0,0.,12.0,0.,12.0,0.,12.0
1979-03-07 09:34:10.440 ,3,1,0.,12.0,0.,12.0,0.,12.0,0.,12.0
1979-03-07 09:34:22.440 ,2,1,0.,12.0,1.,12.0,0.,12.0,0.,12.0
1979-03-07 09:34:34.440 ,2,1,0.,12.0,0.,12.0,0.,12.0,0.,12.0
1979-03-07 09:34:46.440 ,1,1,0.,12.0,0.,12.0,0.,12.0,0.,12.0
1979-03-07 09:34:58.440 ,1,1,0.,12.0,0.,12.0,0.,12.0,0.,12.0
1979-03-07 09:35:10.440 ,0,1,0.,12.0,0.,12.0,0.,12.0,0.,12.0
1979-03-07 09:35:22.440 ,0,1,0.,12.0,0.,12.0,0.,12.0,0.,12.0
1979-03-07 09:35:34.440 ,0,1,0.,12.0,0.,12.0,0.,12.0,0.,12.0
1979-03-07 09:35:46.440 ,0,1,0.,12.0,0.,12.0,0.,12.0,0.,12.0
1979-03-07 09:35:58.440 ,1,1,0.,12.0,0.,12.0,0.,12.0,0.,12.0
1979-03-07 09:36:10.440 ,1,1,0.,12.0,0.,12.0,0.,12.0,0.,12.0
1979-03-07 09:36:22.440 ,2,1,0.,12.0,0.,12.0,0.,12.0,0.,12.0
1979-03-07 09:36:34.440 ,2,1,0.,12.0,0.,12.0,0.,12.0,0.,12.0
1979-03-07 09:36:46.440 ,3,1,0.,12.0,0.,12.0,0.,12.0,0.,12.0
1979-03-07 09:36:58.440 ,3,1,0.,12.0,0.,12.0,0.,12.0,0.,12.0
1979-03-07 09:37:10.440 ,4,1,0.,12.0,0.,12.0,0.,12.0,0.,12.0
1979-03-07 09:37:22.440 ,4,1,0.,12.0,0.,12.0,0.,12.0,0.,12.0
1979-03-07 09:37:34.440 ,5,1,0.,12.0,0.,12.0,0.,12.0,0.,12.0
1979-03-07 09:37:46.440 ,5,1,0.,12.0,0.,12.0,0.,12.0,0.,12.0
1979-03-07 09:37:58.440 ,6,1,0.,12.0,0.,12.0,0.,12.0,0.,12.0
1979-03-07 09:38:10.440 ,6,1,0.,12.0,0.,12.0,0.,12.0,0.,12.0
1979-03-07 09:38:22.440 ,7,1,0.,12.0,0.,12.0,0.,12.0,0.,12.0
1979-03-07 09:38:34.440 ,7,1,0.,12.0,0.,12.0,0.,12.0,0.,12.0
1979-03-07 09:38:46.440 ,7,1,0.,12.0,0.,12.0,0.,12.0,0.,12.0
1979-03-07 09:38:58.440 ,7,1,0.,12.0,0.,12.0,0.,12.0,0.,12.0
1979-03-07 09:39:10.440 ,6,1,0.,12.0,0.,12.0,0.,12.0,0.,12.0
1979-03-07 09:39:22.440 ,6,1,0.,12.0,0.,12.0,0.,12.0,0.,12.0
1979-03-07 09:39:34.440 ,5,1,0.,12.0,0.,12.0,0.,12.0,0.,12.0
1979-03-07 09:39:46.440 ,5,1,0.,12.0,0.,12.0,0.,12.0,0.,12.0
1979-03-07 09:39:58.440 ,4,1,0.,12.0,0.,12.0,0.,12.0,0.,12.0
1979-03-07 09:40:10.440 ,4,1,0.,12.0,0.,12.0,0.,12.0,0.,12.0
1979-03-07 09:40:22.440 ,3,1,0.,12.0,0.,12.0,0.,12.0,0.,12.0
1979-03-07 09:40:34.440 ,3,1,0.,12.0,0.,12.0,0.,12.0,0.,12.0
1979-03-07 09:40:46.440 ,2,1,0.,12.0,0.,12.0,0.,12.0,0.,12.0
1979-03-07 09:40:58.440 ,2,1,0.,12.0,0.,12.0,0.,12.0,0.,12.0
1979-03-07 09:41:10.440 ,1,1,0.,12.0,0.,12.0,0.,12.0,0.,12.0
1979-03-07 09:41:22.440 ,1,1,0.,12.0,0.,12.0,0.,12.0,0.,12.0
1979-03-07 09:41:34.440 ,0,1,0.,12.0,0.,12.0,0.,12.0,0.,12.0
1979-03-07 09:41:46.440 ,0,1,0.,12.0,0.,12.0,0.,12.0,0.,12.0
1979-03-07 09:41:58.440 ,0,1,0.,12.0,0.,12.0,0.,12.0,0.,12.0
1979-03-07 09:42:10.440 ,0,1,0.,12.0,0.,12.0,0.,12.0,0.,12.0
1979-03-07 09:42:22.440 ,1,1,0.,12.0,0.,12.0,0.,12.0,0.,12.0
1979-03-07 09:42:34.440 ,1,1,0.,12.0,0.,12.0,0.,12.0,0.,12.0
1979-03-07 09:42:46.440 ,2,1,0.,12.0,0.,12.0,0.,12.0,0.,12.0
1979-03-07 09:42:58.440 ,2,1,0.,12.0,0.,12.0,0.,12.0,0.,12.0
1979-03-07 09:43:10.440 ,3,1,0.,12.0,0.,12.0,0.,12.0,0.,12.0
1979-03-07 09:43:22.440 ,3,1,0.,12.0,0.,12.0,0.,12.0,0.,12.0
1979-03-07 09:43:34.440 ,4,1,0.,12.0,0.,12.0,0.,12.0,0.,12.0
1979-03-07 09:43:46.440 ,4,1,0.,12.0,0.,12.0,0.,12.0,0.,12.0
1979-03-07 09:43:58.440 ,5,1,0.,12.0,0.,12.0,0.,12.0,1.,12.0
1979-03-07 09:44:10.440 ,5,1,0.,12.0,0.,12.0,0.,12.0,0.,12.0
1979-03-07 09:44:22.440 ,6,1,0.,12.0,0.,12.0,0.,12.0,0.,12.0
1979-03-07 09:44:34.440 ,6,1,0.,12.0,0.,12.0,0.,12.0,0.,12.0
1979-03-07 09:44:46.440 ,7,1,0.,12.0,0.,12.0,0.,12.0,0.,12.0
1979-03-07 09:44:58.440 ,7,1,0.,12.0,0.,12.0,0.,12.0,0.,12.0
1979-03-07 09:45:10.440 ,7,1,0.,12.0,0.,12.0,0.,12.0,0.,12.0
1979-03-07 09:45:22.440 ,7,1,0.,12.0,0.,12.0,0.,12.0,0.,12.0
1979-03-07 09:45:34.440 ,6,1,0.,12.0,0.,12.0,0.,12.0,0.,12.0
1979-03-07 09:45:46.440 ,6,1,0.,12.0,0.,12.0,0.,12.0,0.,12.0
1979-03-07 09:45:58.440 ,5,1,0.,12.0,0.,12.0,0.,12.0,0.,12.0
1979-03-07 09:46:10.440 ,5,1,0.,12.0,0.,12.0,0.,12.0,0.,12.0
1979-03-07 09:46:22.440 ,4,1,0.,12.0,0.,12.0,0.,12.0,0.,12.0
1979-03-07 09:46:34.440 ,4,1,0.,12.0,0.,12.0,0.,12.0,0.,12.0
1979-03-07 09:46:46.440 ,3,1,0.,12.0,0.,12.0,0.,12.0,0.,12.0
1979-03-07 09:46:58.440 ,3,1,0.,12.0,0.,12.0,0.,12.0,0.,12.0
1979-03-07 09:47:10.440 ,2,1,0.,12.0,0.,12.0,0.,12.0,0.,12.0
1979-03-07 09:47:22.440 ,2,1,0.,12.0,0.,12.0,0.,12.0,0.,12.0
1979-03-07 09:47:34.440 ,1,1,0.,12.0,0.,12.0,0.,12.0,0.,12.0
1979-03-07 09:47:46.440 ,1,1,0.,12.0,0.,12.0,0.,12.0,0.,12.0
1979-03-07 09:47:58.440 ,0,1,0.,12.0,0.,12.0,0.,12.0,0.,12.0
1979-03-07 09:48:10.440 ,0,1,0.,12.0,0.,12.0,0.,12.0,0.,12.0
1979-03-07 09:48:22.440 ,0,1,0.,12.0,0.,12.0,0.,12.0,0.,12.0
1979-03-07 09:48:34.440 ,0,1,0.,12.0,0.,12.0,0.,12.0,0.,12.0
1979-03-07 09:48:46.440 ,1,1,0.,12.0,0.,12.0,0.,12.0,0.,12.0
1979-03-07 09:48:58.440 ,1,1,0.,12.0,0.,12.0,0.,12.0,0.,12.0
1979-03-07 09:49:10.440 ,2,1,0.,12.0,0.,12.0,0.,12.0,0.,12.0
1979-03-07 09:49:22.440 ,2,1,0.,12.0,0.,12.0,0.,12.0,0.,12.0
1979-03-07 09:49:34.440 ,3,1,0.,12.0,0.,12.0,0.,12.0,0.,12.0
1979-03-07 09:49:46.440 ,3,1,0.,12.0,0.,12.0,0.,12.0,0.,12.0
1979-03-07 09:49:58.440 ,4,1,0.,12.0,0.,12.0,0.,12.0,0.,12.0
1979-03-07 09:50:10.440 ,4,1,0.,12.0,0.,12.0,0.,12.0,0.,12.0
1979-03-07 09:50:22.440 ,5,1,0.,12.0,0.,12.0,0.,12.0,0.,12.0
1979-03-07 09:50:34.440 ,5,1,0.,12.0,0.,12.0,0.,12.0,0.,12.0
1979-03-07 09:50:46.440 ,6,1,0.,12.0,0.,12.0,0.,12.0,0.,12.0
1979-03-07 09:50:58.440 ,6,1,0.,12.0,0.,12.0,0.,12.0,0.,12.0
1979-03-07 09:51:10.440 ,7,1,0.,12.0,0.,12.0,0.,12.0,0.,12.0
1979-03-07 09:51:22.440 ,7,1,0.,12.0,0.,12.0,0.,12.0,0.,12.0
1979-03-07 09:51:34.440 ,7,1,0.,12.0,0.,12.0,0.,12.0,0.,12.0
1979-03-07 09:51:46.440 ,7,1,0.,12.0,0.,12.0,0.,12.0,0.,12.0
1979-03-07 09:51:58.440 ,6,1,0.,12.0,0.,12.0,0.,12.0,1.,12.0
1979-03-07 09:52:10.440 ,6,1,0.,12.0,0.,12.0,0.,12.0,1.,12.0
1979-03-07 09:52:22.440 ,5,1,0.,12.0,0.,12.0,0.,12.0,0.,12.0
1979-03-07 09:52:34.440 ,5,1,0.,12.0,0.,12.0,0.,12.0,0.,12.0
1979-03-07 09:52:46.440 ,4,1,0.,12.0,0.,12.0,0.,12.0,0.,12.0
1979-03-07 09:52:58.440 ,4,1,0.,12.0,0.,12.0,0.,12.0,0.,12.0
1979-03-07 09:53:10.440 ,3,1,0.,12.0,0.,12.0,0.,12.0,0.,12.0
1979-03-07 09:53:22.440 ,3,1,0.,12.0,0.,12.0,0.,12.0,0.,12.0
1979-03-07 09:53:34.440 ,2,1,0.,12.0,0.,12.0,0.,12.0,0.,12.0
1979-03-07 09:53:46.440 ,2,1,0.,12.0,0.,12.0,0.,12.0,0.,12.0
1979-03-07 09:53:58.440 ,1,1,0.,12.0,0.,12.0,0.,12.0,0.,12.0
1979-03-07 09:54:10.440 ,1,1,0.,12.0,0.,12.0,0.,12.0,0.,12.0
1979-03-07 09:54:22.440 ,0,1,0.,12.0,0.,12.0,0.,12.0,0.,12.0
1979-03-07 09:54:34.440 ,0,1,0.,12.0,0.,12.0,0.,12.0,0.,12.0
1979-03-07 09:54:46.440 ,0,1,0.,12.0,0.,12.0,0.,12.0,0.,12.0
1979-03-07 09:54:58.440 ,0,1,0.,12.0,0.,12.0,0.,12.0,0.,12.0
1979-03-07 09:55:10.440 ,1,1,0.,12.0,0.,12.0,0.,12.0,0.,12.0
1979-03-07 09:55:22.440 ,1,1,0.,12.0,0.,12.0,0.,12.0,0.,12.0
1979-03-07 09:55:34.440 ,2,1,0.,12.0,0.,12.0,0.,12.0,0.,12.0
1979-03-07 09:55:46.440 ,2,1,0.,12.0,0.,12.0,0.,12.0,0.,12.0
1979-03-07 09:55:58.440 ,3,1,0.,12.0,0.,12.0,0.,12.0,0.,12.0
1979-03-07 09:56:10.440 ,3,1,0.,12.0,1.,12.0,0.,12.0,0.,12.0
1979-03-07 09:56:22.440 ,4,1,0.,12.0,0.,12.0,0.,12.0,0.,12.0
1979-03-07 09:56:34.440 ,4,1,0.,12.0,0.,12.0,0.,12.0,0.,12.0
1979-03-07 09:56:46.440 ,5,1,0.,12.0,1.,12.0,0.,12.0,0.,12.0
1979-03-07 09:56:58.440 ,5,1,0.,12.0,0.,12.0,0.,12.0,0.,12.0
1979-03-07 09:57:10.440 ,6,1,0.,12.0,0.,12.0,0.,12.0,0.,12.0
1979-03-07 09:57:22.440 ,6,1,0.,12.0,0.,12.0,0.,12.0,0.,12.0
1979-03-07 09:57:34.440 ,7,1,0.,12.0,0.,12.0,0.,12.0,0.,12.0
1979-03-07 09:57:46.440 ,7,1,0.,12.0,0.,12.0,0.,12.0,0.,12.0
1979-03-07 09:57:58.440 ,7,1,0.,12.0,0.,12.0,0.,12.0,0.,12.0
1979-03-07 09:58:10.440 ,7,1,0.,12.0,0.,12.0,0.,12.0,0.,12.0
1979-03-07 09:58:22.440 ,0,0,0.,12.0,0.,12.0,0.,12.0,0.,12.0
1979-03-07 09:58:34.440 ,0,0,0.,12.0,0.,12.0,0.,12.0,0.,12.0
1979-03-07 09:58:46.440 ,0,0,0.,12.0,1.,12.0,0.,12.0,0.,12.0
1979-03-07 09:58:58.440 ,0,0,0.,12.0,0.,12.0,0.,12.0,0.,12.0
1979-03-07 09:59:10.440 ,0,0,0.,12.0,0.,12.0,0.,12.0,0.,12.0
1979-03-07 09:59:22.440 ,0,0,0.,12.0,0.,12.0,0.,12.0,0.,12.0
1979-03-07 09:59:34.440 ,3,1,0.,12.0,0.,12.0,0.,12.0,0.,12.0
1979-03-07 09:59:46.440 ,3,1,0.,12.0,0.,12.0,0.,12.0,0.,12.0
1979-03-07 09:59:58.440 ,2,1,0.,12.0,0.,12.0,0.,12.0,0.,12.0
1979-03-07 10:00:10.440 ,2,1,0.,12.0,1.,12.0,0.,12.0,0.,12.0
1979-03-07 10:00:22.440 ,1,1,0.,12.0,0.,12.0,0.,12.0,0.,12.0
1979-03-07 10:00:34.440 ,1,1,0.,12.0,0.,12.0,0.,12.0,0.,12.0
1979-03-07 10:00:46.440 ,0,1,0.,12.0,0.,12.0,0.,12.0,0.,12.0
1979-03-07 10:00:58.440 ,0,1,0.,12.0,0.,12.0,0.,12.0,0.,12.0
1979-03-07 10:01:10.440 ,0,1,0.,12.0,0.,12.0,0.,12.0,0.,12.0
1979-03-07 10:01:22.440 ,0,1,0.,12.0,0.,12.0,0.,12.0,0.,12.0
1979-03-07 10:01:34.440 ,1,1,0.,12.0,0.,12.0,0.,12.0,0.,12.0
1979-03-07 10:01:46.440 ,1,1,0.,12.0,0.,12.0,0.,12.0,0.,12.0
1979-03-07 10:01:58.440 ,2,1,0.,12.0,0.,12.0,0.,12.0,0.,12.0
1979-03-07 10:02:10.440 ,2,1,0.,12.0,0.,12.0,0.,12.0,0.,12.0
1979-03-07 10:02:22.440 ,3,1,0.,12.0,0.,12.0,0.,12.0,0.,12.0
1979-03-07 10:02:34.440 ,3,1,0.,12.0,0.,12.0,0.,12.0,0.,12.0
1979-03-07 10:02:46.440 ,4,1,0.,12.0,0.,12.0,0.,12.0,0.,12.0
1979-03-07 10:02:58.440 ,4,1,0.,12.0,0.,12.0,0.,12.0,0.,12.0
1979-03-07 10:03:10.440 ,5,1,0.,12.0,0.,12.0,0.,12.0,0.,12.0
1979-03-07 10:03:22.440 ,5,1,0.,12.0,0.,12.0,0.,12.0,0.,12.0
1979-03-07 10:03:34.440 ,6,1,0.,12.0,1.,12.0,0.,12.0,0.,12.0
1979-03-07 10:03:46.440 ,6,1,0.,12.0,0.,12.0,0.,12.0,0.,12.0
1979-03-07 10:03:58.440 ,7,1,0.,12.0,0.,12.0,0.,12.0,0.,12.0
1979-03-07 10:04:10.440 ,7,1,0.,12.0,0.,12.0,0.,12.0,0.,12.0
1979-03-07 10:04:22.440 ,7,1,0.,12.0,0.,12.0,0.,12.0,0.,12.0
1979-03-07 10:04:34.440 ,7,1,0.,12.0,0.,12.0,0.,12.0,0.,12.0
1979-03-07 10:04:46.440 ,6,1,0.,12.0,0.,12.0,0.,12.0,0.,12.0
1979-03-07 10:04:58.440 ,6,1,0.,12.0,0.,12.0,0.,12.0,0.,12.0
1979-03-07 10:05:10.440 ,5,1,0.,12.0,0.,12.0,0.,12.0,0.,12.0
1979-03-07 10:05:22.440 ,5,1,0.,12.0,0.,12.0,0.,12.0,0.,12.0
1979-03-07 10:05:34.450 ,4,1,0.,12.0,0.,12.0,0.,12.0,0.,12.0
1979-03-07 10:05:46.450 ,4,1,0.,12.0,0.,12.0,0.,12.0,0.,12.0
1979-03-07 10:05:58.450 ,3,1,0.,12.0,0.,12.0,0.,12.0,0.,12.0
1979-03-07 10:06:10.450 ,3,1,0.,12.0,0.,12.0,0.,12.0,0.,12.0
1979-03-07 10:06:22.450 ,2,1,0.,12.0,0.,12.0,0.,12.0,0.,12.0
1979-03-07 10:06:34.450 ,2,1,0.,12.0,0.,12.0,0.,12.0,0.,12.0
1979-03-07 10:06:46.450 ,1,1,0.,12.0,0.,12.0,0.,12.0,0.,12.0
1979-03-07 10:06:58.450 ,1,1,0.,12.0,0.,12.0,0.,12.0,0.,12.0
1979-03-07 10:07:10.450 ,0,1,0.,12.0,0.,12.0,0.,12.0,0.,12.0
1979-03-07 10:07:22.450 ,0,1,0.,12.0,0.,12.0,0.,12.0,0.,12.0
1979-03-07 10:07:34.450 ,0,1,0.,12.0,0.,12.0,0.,12.0,0.,12.0
1979-03-07 10:07:46.450 ,0,1,0.,12.0,0.,12.0,0.,12.0,0.,12.0
1979-03-07 10:07:58.450 ,1,1,0.,12.0,0.,12.0,0.,12.0,0.,12.0
1979-03-07 10:08:10.450 ,1,1,0.,12.0,0.,12.0,0.,12.0,0.,12.0
1979-03-07 10:08:22.450 ,2,1,0.,12.0,0.,12.0,0.,12.0,0.,12.0
1979-03-07 10:08:34.450 ,2,1,0.,12.0,0.,12.0,0.,12.0,0.,12.0
1979-03-07 10:08:46.450 ,3,1,0.,12.0,0.,12.0,0.,12.0,0.,12.0
1979-03-07 10:08:58.450 ,3,1,0.,12.0,0.,12.0,0.,12.0,0.,12.0
1979-03-07 10:09:10.450 ,4,1,0.,12.0,0.,12.0,0.,12.0,0.,12.0
1979-03-07 10:09:22.450 ,4,1,0.,12.0,0.,12.0,0.,12.0,0.,12.0
1979-03-07 10:09:34.450 ,5,1,0.,12.0,0.,12.0,0.,12.0,0.,12.0
1979-03-07 10:09:46.450 ,5,1,0.,12.0,0.,12.0,0.,12.0,0.,12.0
1979-03-07 10:09:58.450 ,6,1,0.,12.0,0.,12.0,0.,12.0,0.,12.0
1979-03-07 10:10:10.450 ,6,1,0.,12.0,0.,12.0,0.,12.0,0.,12.0
1979-03-07 10:10:22.450 ,7,1,0.,12.0,0.,12.0,0.,12.0,0.,12.0
1979-03-07 10:10:34.450 ,7,1,0.,12.0,0.,12.0,0.,12.0,0.,12.0
1979-03-07 10:10:46.450 ,7,1,0.,12.0,0.,12.0,0.,12.0,0.,12.0
1979-03-07 10:10:58.450 ,7,1,0.,12.0,0.,12.0,0.,12.0,0.,12.0
1979-03-07 10:11:10.450 ,6,1,0.,12.0,0.,12.0,0.,12.0,0.,12.0
1979-03-07 10:11:22.450 ,6,1,0.,12.0,0.,12.0,0.,12.0,0.,12.0
1979-03-07 10:11:34.450 ,5,1,0.,12.0,0.,12.0,0.,12.0,0.,12.0
1979-03-07 10:11:46.450 ,5,1,0.,12.0,0.,12.0,0.,12.0,0.,12.0
1979-03-07 10:11:58.450 ,4,1,0.,12.0,0.,12.0,0.,12.0,0.,12.0
1979-03-07 10:12:10.450 ,4,1,0.,12.0,0.,12.0,0.,12.0,0.,12.0
1979-03-07 10:12:22.450 ,3,1,0.,12.0,0.,12.0,0.,12.0,0.,12.0
1979-03-07 10:12:34.450 ,3,1,0.,12.0,0.,12.0,0.,12.0,0.,12.0
1979-03-07 10:12:46.450 ,2,1,0.,12.0,0.,12.0,0.,12.0,0.,12.0
1979-03-07 10:12:58.450 ,2,1,0.,12.0,0.,12.0,0.,12.0,0.,12.0
1979-03-07 10:13:10.450 ,1,1,0.,12.0,0.,12.0,0.,12.0,0.,12.0
1979-03-07 10:13:22.450 ,1,1,0.,12.0,0.,12.0,0.,12.0,0.,12.0
1979-03-07 10:13:34.450 ,0,1,0.,12.0,0.,12.0,0.,12.0,0.,12.0
1979-03-07 10:13:46.450 ,0,1,0.,12.0,0.,12.0,0.,12.0,0.,12.0
1979-03-07 10:13:58.450 ,0,1,0.,12.0,0.,12.0,0.,12.0,0.,12.0
1979-03-07 10:14:10.450 ,0,1,0.,12.0,0.,12.0,0.,12.0,0.,12.0
1979-03-07 10:14:22.450 ,1,1,0.,12.0,0.,12.0,0.,12.0,0.,12.0
1979-03-07 10:14:34.450 ,1,1,0.,12.0,0.,12.0,0.,12.0,0.,12.0
1979-03-07 10:14:46.450 ,2,1,0.,12.0,0.,12.0,0.,12.0,0.,12.0
1979-03-07 10:14:58.450 ,2,1,0.,12.0,0.,12.0,0.,12.0,0.,12.0
1979-03-07 10:15:10.450 ,3,1,0.,12.0,0.,12.0,0.,12.0,0.,12.0
1979-03-07 10:15:22.450 ,3,1,0.,12.0,0.,12.0,0.,12.0,0.,12.0
1979-03-07 10:15:34.450 ,4,1,0.,12.0,0.,12.0,0.,12.0,0.,12.0
1979-03-07 10:15:46.450 ,4,1,0.,12.0,0.,12.0,0.,12.0,0.,12.0
1979-03-07 10:15:58.450 ,5,1,0.,12.0,0.,12.0,0.,12.0,0.,12.0
1979-03-07 10:16:10.450 ,5,1,0.,12.0,0.,12.0,0.,12.0,0.,12.0
1979-03-07 10:16:22.450 ,6,1,0.,12.0,0.,12.0,0.,12.0,0.,12.0
1979-03-07 10:16:34.450 ,6,1,0.,12.0,0.,12.0,0.,12.0,0.,12.0
1979-03-07 10:16:46.450 ,7,1,0.,12.0,0.,12.0,0.,12.0,0.,12.0
1979-03-07 10:16:58.450 ,7,1,0.,12.0,0.,12.0,0.,12.0,0.,12.0
1979-03-07 10:17:10.450 ,7,1,0.,12.0,0.,12.0,0.,12.0,0.,12.0
1979-03-07 10:17:22.450 ,7,1,0.,12.0,0.,12.0,0.,12.0,0.,12.0